Welcome to the New NWS' Forecast!
Most changes are behind the scenes, but click here for differences you might notice.

Regional Weather Roundup (RWR)

Issued by Gray - Portland, ME (GYX)

                            
000
ASUS41 KGYX 180710
RWRGYX
WEATHER ROUNDUP FOR MAINE AND NEW HAMPSHIRE
NATIONAL WEATHER SERVICE GRAY ME
300 AM EDT THU OCT 18 2018

MEZ002-005-006-010-012-015-018-020-021-024-026-027-029-180800-
MAINE
  
CITY           SKY/WX    TMP DP  RH WIND       PRES   REMARKS
PORTLAND       FAIR      38  25  59 W12       29.91R                  
SANFORD        FAIR      37  27  67 W10G20    29.94                   
BAR HARBOR     CLOUDY    37  30  75 VRB7      29.80S                  
WISCASSET      FAIR      38  27  64 VRB5      29.89R                  
ROCKLAND       MOCLDY    39  27  62 W13G21    29.84                   
FRYEBURG       CLOUDY    35  27  72 MISG      29.92R                  
LEWISTONAUBURN FAIR      37  23  56 NW8       29.89R                  
AUGUSTA        FAIR      36  26  67 W17G31    29.87R                  
WATERVILLE     MOCLDY    35  29  78 NW9       29.83R                  
BANGOR         MOCLDY    36  30  79 W8        29.80R                  
GREENVILLE       N/A     31  24  75 NW13G28   29.72S                  
MILLINOCKET    FAIR      36  26  67 W13G21    29.76R                  
HOULTON        MOCLDY    32  28  85 W5        29.68R                  
PRESQUE ISLE   FAIR      30  25  81 W7        29.68R                  
FRENCHVILLE    MOCLDY    32  22  66 W15G21    29.64R                  
CARIBOU        FAIR      32  23  69 VRB6      29.65R                  
$$

NHZ002-005-008-009-011-012-014-180800-
NEW HAMPSHIRE
  
CITY           SKY/WX    TMP DP  RH WIND       PRES   REMARKS
PORTSMOUTH     PTCLDY    38  30  74 W12       29.95R                  
ROCHESTER      FAIR      35  30  82 VRB5      29.95R                  
NASHUA         MOCLDY    37  30  75 NW3       30.01R                  
MANCHESTER     MOCLDY    36  32  85 W9        29.99R                  
CONCORD        FAIR      35  26  69 W12       29.99R                  
LACONIA        FAIR      35  24  64 W10G20    29.96R                  
PLYMOUTH       MOCLDY    34  26  73 W6        29.96R                  
BERLIN         LGT SNOW  31  28  89 N9        29.89R FOG              
WHITEFIELD     CLOUDY    33  26  75 W10       29.92R                  
JAFFREY        FAIR      34  25  69 W6        30.00R                  
KEENE          FAIR      36  23  59 W7        30.03R                  
LEBANON        FAIR      33  24  69 W6        30.01R                  
MT WASHINGTON  SNOW      10  10 100 NW60G74     N/A  VSB 1/16WCI -18  
$$

VTZ005-007-008-180800-
VERMONT
  
CITY           SKY/WX    TMP DP  RH WIND       PRES   REMARKS
ST JOHNSBURY     N/A     32  29  88 MISG      29.95R                  
MONTPELIER     FLURRIES  31  27  85 NW13      30.01R                  
BURLINGTON     CLOUDY    37  24  59 NW21G31   30.06R                  
$$

MAZ007-012-024-CTZ003-RIZ002-NYZ038-NYZ072-180800-
SOUTHERN NEW ENGLAND AND NY
  
CITY           SKY/WX    TMP DP  RH WIND       PRES   REMARKS
BOSTON         FAIR      41  32  70 W16G22    30.02R                  
WORCESTER      FAIR      35  26  69 W13G25    30.01R                  
NANTUCKET      FAIR      46  27  47 W18G33    30.00R                  
PROVIDENCE     FAIR      43  26  51 W14G22    30.06R                  
HARTFORD       FAIR      40  27  59 NW15G21   30.09R                  
ALBANY         FAIR      38  23  55 NW18G25   30.14R                  
NEW YORK CITY  FAIR      48  27  44 NW21G29   30.16R                  
$$

ANZ081-ANZ082-ANZ150-NHZ014-MEZ023>029-180800-
COASTAL MARINE OBSERVATIONS
  
STATION/POSITION TIME  TEMP    WIND        PRES    WAVE
                       AIR SEA DIR/SP/G            HT/PER
                 (UTC) (F)     (DEG/KT/KT) (MB)    (FT/S)
MOUNT DESERT ROC 0700   44     270/ 25/ 30 1008.6F
MATINICUS ROCK   0600   44     290/ 32/ 36 1009.0S
ISLE OF SHOALS   0600   41     280/ 24/ 27 1013.1R
JEFFREYS LEDGE   0636      56                N/A     6/ 6
$$

.............KEY..............
   WCI - WIND CHILL
   TC  - TEMPERATURE IN CELSIUS
   VSB - VISIBILITY IN MILES
   HX  - HEAT INDEX
   FAIR- INDICATES FEW OR NO CLOUDS BELOW 12,000 FT, WITH NO 
         SIGNIFICANT WEATHER AND/OR OBSTRUCTIONS TO VISIBILITY.